Location: Callanans Corners
(42.5326°N, 73.8846°W)
Time: 14:30:57
(UTC+00:00)

Cosmos 1980 Rocket - Pass Details

Date: 06 October 2022
Orbit: 830 x 849 km, 71.0° (Epoch: 28 November)

Event Time Altitude Azimuth Distance (km) Brightness Sun altitude
Rises 22:54:20 0° 219° (SW) 3,377 6.0 -5.6°
Reaches altitude 10° 22:56:51 10° 225° (SW) 2,444 5.4 -6.1°
Maximum altitude 23:02:16 49° 300° (WNW) 1,068 3.2 -7.1°
Drops below altitude 10° 23:07:42 10° 15° (NNE) 2,448 4.5 -8.1°
Sets 23:10:14 0° 21° (NNE) 3,383 5.1 -8.6°
